Meteo Giornale » Osservazioni meteo Italia » Brescia-Montichiari

ore: 05:50 - Osservazioni Meteo Brescia-Montichiari
Lat. 45° 24' N Lon. 10° 18' E Alt. 104 metri s.l.m.

poco_nuvoloso Europe/Rome

21 °C

Poco Nuvoloso

Temp. 24 Ore

21 °C

31 °C

Nord-Est

14.8 Km/h

Dew point 20 °C

Umidità 94 %

Visibilità  10 Km

Il sole sorge alle ore 06:21

Il sole tramonta alle ore 20:23

Data e Ora Cielo e Fenomeni T °C DP °C Um. % Pres. hPa Vis. km Vento km/h
Oggi h: 05:50 poco_nuvoloso Poco Nuvoloso 21 20 94 1010 10 NE 14.8
Oggi h: 05:20 molto_nuvoloso Molto Nuvoloso 21 20 94 1011 10 N 11.1
Oggi h: 04:50 coperto_pioggia Pioggia Debole Temporale nelle Vicinanze 21 20 94 1011 10 E/NE 16.7
Oggi h: 04:20 coperto_pioggia Pioggia Debole Temporale nelle Vicinanze 21 20 94 1014 8 SO 18.5
Oggi h: 03:50 molto_nuvoloso Molto Nuvoloso 21 20 94 1012 10 O/NO 7.4
Oggi h: 03:20 molto_nuvoloso Molto Nuvoloso 21 20 94 1012 10 N 3.7
Oggi h: 02:50 nuvoloso Nuvoloso 21 20 94 1012 10 N 5.5
Oggi h: 02:20 poco_nuvoloso Poco Nuvoloso 21 20 94 1012 10 N 5.5
Oggi h: 01:50 molto_nuvoloso Molto Nuvoloso 21 20 94 1012 10 N 1.8
Oggi h: 01:20 poco_nuvoloso Poco Nuvoloso 22 19 83 1012 10 N 1.8
Oggi h: 00:50 poco_nuvoloso Poco Nuvoloso 22 20 88 1013 10 N 5.5
Oggi h: 00:20 poco_nuvoloso Poco Nuvoloso 22 19 83 1013 10 N 1.8
Ieri h: 23:50 nuvoloso Nuvoloso 22 19 83 1013 10 N 3.7
Ieri h: 23:20 molto_nuvoloso Molto Nuvoloso 23 20 83 1013 10 N 5.5
Ieri h: 22:50 molto_nuvoloso Molto Nuvoloso 23 20 83 1013 10 E/NE 9.3
Ieri h: 22:20 molto_nuvoloso Molto Nuvoloso 23 20 83 1013 10 N/NE 9.3
Ieri h: 21:50 nuvoloso Nuvoloso 23 21 88 1013 10 E 18.5
Ieri h: 21:20 sereno Sereno 25 22 83 1012 10 E 13
Ieri h: 20:50 sereno Sereno 25 22 83 1012 10 N 5.5
Ieri h: 20:20 poco_nuvoloso Poco Nuvoloso 25 22 83 1012 10 N 5.5
Ieri h: 19:50 coperto_pioggia Pioggia Debole 26 22 78 1010 10 N 1.8
Ieri h: 19:20 coperto_pioggia Pioggia Debole 27 21 69 1011 10 O 16.7
Ieri h: 18:50 molto_nuvoloso Molto Nuvoloso 28 20 61 1012 10 O/SO 14.8
Ieri h: 18:20 coperto_pioggia Pioggia Debole 29 19 54 1012 10 S/SO 11.1
Ieri h: 17:50 nuvoloso Nuvoloso 30 19 51 1012 10 S 7.4
Ieri h: 17:20 sereno Sereno 30 19 51 1012 10 N 5.5
Ieri h: 16:50 coperto_pioggia Pioggia Debole 30 18 48 1012 10 N 5.5
Ieri h: 16:20 sereno Sereno 30 19 51 1013 10 E/SE 7.4
Ieri h: 15:50 nuvoloso Nuvoloso 30 18 48 1013 10 SE 9.3
Ieri h: 15:20 sereno Sereno 31 18 45 1013 10 N 9.3
Ieri h: 14:50 sereno Sereno 31 18 45 1013 10 SE 9.3
Ieri h: 14:20 poco_nuvoloso Poco Nuvoloso 30 17 45 1013 10 E/SE 7.4
Ieri h: 13:50 nuvoloso Nuvoloso 30 16 42 1013 10 S/SE 7.4
Ieri h: 13:20 sereno Sereno 30 16 42 1013 10 E/SE 9.3
Ieri h: 12:50 nuvoloso Nuvoloso 29 16 45 1013 10 E/SE 9.3
Ieri h: 12:20 sereno Sereno 29 16 45 1013 10 S/SE 7.4
Ieri h: 11:50 sereno Sereno 29 15 42 1013 10 E/SE 11.1
Ieri h: 11:20 sereno Sereno 29 16 45 1013 10 E/SE 14.8
Ieri h: 10:50 sereno Sereno 28 17 51 1013 10 E 11.1
Ieri h: 10:20 sereno Sereno 28 17 51 1013 10 E/SE 18.5
Ieri h: 09:50 sereno Sereno 28 17 51 1013 10 E 14.8
Ieri h: 09:20 sereno Sereno 27 18 57 1013 10 E 9.3
Ieri h: 08:50 sereno Sereno 25 19 69 1013 10 E/SE 9.3
Ieri h: 08:20 sereno Sereno 25 19 69 1014 10 SE 9.3
Ieri h: 07:50 sereno Sereno 23 19 78 1013 10 S/SE 7.4
Ieri h: 07:20 sereno Sereno 23 19 78 1013 10 N 5.5
Ieri h: 06:50 sereno Sereno 23 18 73 1012 10 E/NE 7.4